| time (UTC) | temp C | wind direction | speed KPH | gust KPH | rain 1hr cm | rain 24hr cm | rain mn cm | humidity % | barometer mb |
| 20260508194514 | 18 | 263 | 4.8 | 11.3 | 0.00 | 0.00 | 0.00 | 48 | 1016.3 |
| 20260508193514 | 19 | 243 | 4.8 | 9.7 | 0.00 | 0.00 | 0.00 | 47 | 1016.3 |
| 20260508192514 | 18 | 258 | 3.2 | 9.7 | 0.00 | 0.00 | 0.00 | 48 | 1016.6 |
| 20260508191534 | 19 | 247 | 3.2 | 12.9 | 0.00 | 0.00 | 0.00 | 48 | 1016.6 |
| 20260508190514 | 19 | 289 | 1.6 | 11.3 | 0.00 | 0.00 | 0.00 | 47 | 1016.6 |
| 20260508185514 | 19 | 239 | 4.8 | 9.7 | 0.00 | 0.00 | 0.00 | 45 | 1016.8 |
| 20260508184514 | 19 | 265 | 3.2 | 8.0 | 0.00 | 0.00 | 0.00 | 46 | 1016.8 |
| 20260508183514 | 19 | 257 | 3.2 | 6.4 | 0.00 | 0.00 | 0.00 | 47 | 1017.0 |
| 20260508182514 | 18 | 317 | 1.6 | 4.8 | 0.00 | 0.00 | 0.00 | 48 | 1017.0 |
| 20260508181514 | 19 | 243 | 3.2 | 14.5 | 0.00 | 0.00 | 0.00 | 44 | 1017.2 |
| 20260508180514 | 19 | 28 | 3.2 | 9.7 | 0.00 | 0.00 | 0.00 | 46 | 1017.3 |
| 20260508175614 | 18 | 272 | 3.2 | 6.4 | 0.00 | 0.00 | 0.00 | 43 | 1017.4 |
| 20260508174514 | 18 | 258 | 3.2 | 9.7 | 0.00 | 0.00 | 0.00 | 41 | 1017.2 |
| 20260508173514 | 18 | 261 | 4.8 | 11.3 | 0.00 | 0.00 | 0.00 | 41 | 1017.5 |
| 20260508172514 | 18 | 245 | 1.6 | 6.4 | 0.00 | 0.00 | 0.00 | 43 | 1017.7 |
| 20260508171514 | 18 | 246 | 3.2 | 9.7 | 0.00 | 0.00 | 0.00 | 42 | 1017.8 |
| 20260508170514 | 18 | 36 | 3.2 | 8.0 | 0.00 | 0.00 | 0.00 | 42 | 1017.9 |
| 20260508165534 | 18 | 316 | 1.6 | 4.8 | 0.00 | 0.00 | 0.00 | 41 | 1017.9 |
| 20260508164514 | 17 | 37 | 1.6 | 4.8 | 0.00 | 0.00 | 0.00 | 43 | 1018.1 |
| 20260508163534 | 17 | 37 | 1.6 | 4.8 | 0.00 | 0.00 | 0.00 | 40 | 1018.0 |
| 20260508162534 | 16 | 272 | 3.2 | 9.7 | 0.00 | 0.00 | 0.00 | 43 | 1018.1 |
| 20260508161514 | 16 | 323 | 1.6 | 3.2 | 0.00 | 0.00 | 0.00 | 43 | 1018.2 |
| 20260508160514 | 15 | 240 | 1.6 | 4.8 | 0.00 | 0.00 | 0.00 | 44 | 1018.2 |
| 20260508155534 | 15 | 249 | 1.6 | 4.8 | 0.00 | 0.00 | 0.00 | 47 | 1018.4 |
| 20260508154514 | 14 | 214 | 1.6 | 3.2 | 0.00 | 0.00 | 0.00 | 47 | 1018.3 |
| 20260508153534 | 13 | 217 | 1.6 | 4.8 | 0.00 | 0.00 | 0.00 | 45 | 1018.3 |
| 20260508152514 | 12 | 240 | 1.6 | 4.8 | 0.00 | 0.00 | 0.00 | 53 | 1018.3 |
| 20260508151514 | 11 | 239 | 0.0 | 3.2 | 0.00 | 0.00 | 0.00 | 53 | 1018.1 |
| 20260508150514 | 11 | 217 | 1.6 | 3.2 | 0.00 | 0.00 | 0.00 | 58 | 1018.1 |
| 20260508145534 | 10 | 208 | 0.0 | 4.8 | 0.00 | 0.00 | 0.00 | 59 | 1018.1 |
| 20260508144514 | 10 | 207 | 1.6 | 3.2 | 0.00 | 0.00 | 0.00 | 59 | 1018.1 |
| 20260508143514 | 9 | 207 | 0.0 | 3.2 | 0.00 | 0.00 | 0.00 | 59 | 1018.1 |
| 20260508142514 | 8 | 182 | 0.0 | 1.6 | 0.00 | 0.00 | 0.00 | 58 | 1018.0 |
| 20260508141534 | 8 | 0.0 | 3.2 | 0.00 | 0.00 | 0.00 | 66 | 1018.1 | |
| 20260508140514 | 7 | 182 | 0.0 | 3.2 | 0.00 | 0.00 | 0.00 | 71 | 1018.0 |
| 20260508135514 | 7 | 182 | 0.0 | 1.6 | 0.00 | 0.00 | 0.00 | 76 | 1017.9 |
| 20260508134516 | 7 | 182 | 0.0 | 3.2 | 0.00 | 0.00 | 0.00 | 83 | 1017.9 |
| 20260508133516 | 6 | 0.0 | 0.0 | 0.00 | 0.00 | 0.00 | 88 | 1017.9 | |
| 20260508132516 | 6 | 0.0 | 0.0 | 0.00 | 0.00 | 0.00 | 90 | 1017.8 | |
| 20260508131556 | 6 | 0.0 | 0.0 | 0.00 | 0.00 | 0.00 | 91 | 1017.6 | |
| 20260508130516 | 6 | 0.0 | 0.0 | 0.00 | 0.00 | 0.00 | 91 | 1017.8 | |
| 20260508125516 | 5 | 0.0 | 0.0 | 0.00 | 0.00 | 0.00 | 92 | 1017.7 | |
| 20260508124516 | 5 | 0.0 | 0.0 | 0.00 | 0.00 | 0.00 | 92 | 1017.7 | |
| 20260508123516 | 5 | 0.0 | 0.0 | 0.00 | 0.00 | 0.00 | 91 | 1017.7 | |
| 20260508122515 | 5 | 0.0 | 0.0 | 0.00 | 0.00 | 0.00 | 92 | 1017.6 | |
| 20260508121515 | 5 | 0.0 | 0.0 | 0.00 | 0.00 | 0.00 | 91 | 1017.5 | |
| 20260508120516 | 4 | 0.0 | 0.0 | 0.00 | 0.00 | 0.00 | 91 | 1017.5 | |
| 20260508115516 | 4 | 0.0 | 0.0 | 0.00 | 0.03 | 0.00 | 91 | 1017.4 | |
| 20260508114516 | 4 | 0.0 | 0.0 | 0.00 | 0.03 | 0.00 | 91 | 1017.1 | |
| 20260508113516 | 3 | 0.0 | 0.0 | 0.00 | 0.03 | 0.00 | 90 | 1016.9 | |
| 20260508112515 | 3 | 0.0 | 0.0 | 0.00 | 0.05 | 0.00 | 90 | 1016.7 | |
| 20260508111515 | 3 | 0.0 | 0.0 | 0.00 | 0.05 | 0.00 | 89 | 1016.4 | |
| 20260508110515 | 4 | 0.0 | 0.0 | 0.00 | 0.05 | 0.00 | 90 | 1016.3 | |
| 20260508105515 | 4 | 0.0 | 0.0 | 0.00 | 0.08 | 0.00 | 89 | 1016.2 | |
| 20260508104515 | 4 | 0.0 | 0.0 | 0.00 | 0.08 | 0.00 | 89 | 1016.0 | |
| 20260508103516 | 4 | 0.0 | 0.0 | 0.00 | 0.08 | 0.00 | 89 | 1015.8 | |
| 20260508102516 | 5 | 0.0 | 0.0 | 0.00 | 0.10 | 0.00 | 89 | 1015.6 | |
| 20260508101515 | 5 | 0.0 | 0.0 | 0.00 | 0.13 | 0.00 | 89 | 1015.5 | |
| 20260508100515 | 5 | 0.0 | 0.0 | 0.00 | 0.13 | 0.00 | 89 | 1015.3 | |
| 20260508095515 | 5 | 0.0 | 0.0 | 0.00 | 0.15 | 0.00 | 89 | 1015.3 | |
| 20260508094515 | 5 | 0.0 | 0.0 | 0.00 | 0.15 | 0.00 | 89 | 1015.2 | |
| 20260508093535 | 5 | 0.0 | 0.0 | 0.00 | 0.15 | 0.00 | 89 | 1015.3 | |
| 20260508092535 | 5 | 0.0 | 0.0 | 0.00 | 0.15 | 0.00 | 89 | 1015.3 | |
| 20260508091515 | 6 | 0.0 | 0.0 | 0.00 | 0.15 | 0.00 | 89 | 1015.5 | |
| 20260508090515 | 6 | 0.0 | 0.0 | 0.00 | 0.15 | 0.00 | 89 | 1015.5 | |
| 20260508085515 | 6 | 0.0 | 0.0 | 0.00 | 0.15 | 0.00 | 90 | 1015.6 | |
| 20260508084515 | 6 | 0.0 | 0.0 | 0.00 | 0.15 | 0.00 | 90 | 1015.4 | |
| 20260508083515 | 6 | 0.0 | 0.0 | 0.00 | 0.15 | 0.00 | 90 | 1015.5 | |
| 20260508082515 | 6 | 0.0 | 0.0 | 0.00 | 0.15 | 0.00 | 90 | 1015.5 | |
| 20260508081515 | 6 | 0.0 | 0.0 | 0.00 | 0.15 | 0.00 | 90 | 1015.7 | |
| 20260508080515 | 6 | 0.0 | 0.0 | 0.00 | 0.15 | 0.00 | 90 | 1015.4 | |
| 20260508075515 | 6 | 0.0 | 1.6 | 0.00 | 0.15 | 0.00 | 90 | 1015.5 | |
| 20260508074515 | 6 | 0.0 | 3.2 | 0.00 | 0.15 | 0.00 | 90 | 1015.2 | |
| 20260508073515 | 6 | 182 | 0.0 | 3.2 | 0.00 | 0.15 | 0.00 | 90 | 1015.2 |
| 20260508072515 | 6 | 182 | 0.0 | 1.6 | 0.00 | 0.15 | 0.00 | 90 | 1015.2 |
| 20260508071515 | 7 | 182 | 0.0 | 3.2 | 0.00 | 0.15 | 0.00 | 90 | 1015.1 |
| 20260508070515 | 7 | 182 | 0.0 | 3.2 | 0.00 | 0.15 | 0.00 | 91 | 1015.1 |
| 20260508065515 | 6 | 182 | 0.0 | 3.2 | 0.00 | 0.15 | 0.00 | 91 | 1015.0 |
| 20260508064515 | 6 | 0.0 | 0.0 | 0.00 | 0.15 | 0.00 | 91 | 1015.2 | |
| 20260508063515 | 6 | 0.0 | 0.0 | 0.00 | 0.15 | 0.00 | 91 | 1015.2 | |
| 20260508062535 | 6 | 0.0 | 1.6 | 0.00 | 0.15 | 0.00 | 91 | 1015.5 | |
| 20260508061515 | 6 | 0.0 | 0.0 | 0.00 | 0.15 | 0.00 | 91 | 1015.6 | |
| 20260508060515 | 6 | 182 | 0.0 | 1.6 | 0.00 | 0.15 | 0.00 | 91 | 1015.6 |
| 20260508055515 | 6 | 182 | 0.0 | 1.6 | 0.00 | 0.15 | 0.00 | 90 | 1015.7 |
| 20260508054515 | 6 | 182 | 0.0 | 3.2 | 0.00 | 0.15 | 0.00 | 90 | 1015.7 |
| 20260508053515 | 6 | 182 | 0.0 | 3.2 | 0.00 | 0.15 | 0.00 | 90 | 1015.6 |
| 20260508052515 | 6 | 182 | 0.0 | 1.6 | 0.00 | 0.15 | 0.00 | 90 | 1015.6 |
| 20260508051515 | 6 | 0.0 | 1.6 | 0.00 | 0.15 | 0.00 | 90 | 1015.6 | |
| 20260508050515 | 6 | 182 | 1.6 | 3.2 | 0.00 | 0.15 | 0.00 | 89 | 1015.6 |
| 20260508045515 | 6 | 0.0 | 0.0 | 0.00 | 0.15 | 0.00 | 89 | 1015.6 | |
| 20260508044515 | 6 | 182 | 0.0 | 1.6 | 0.00 | 0.15 | 0.00 | 89 | 1015.1 |
| 20260508043535 | 6 | 0.0 | 0.0 | 0.00 | 0.15 | 0.00 | 89 | 1015.1 | |
| 20260508042515 | 7 | 0.0 | 1.6 | 0.00 | 0.15 | 0.00 | 89 | 1015.2 | |
| 20260508041535 | 7 | 182 | 0.0 | 1.6 | 0.00 | 0.15 | 0.00 | 89 | 1015.1 |
| 20260508040515 | 7 | 182 | 0.0 | 3.2 | 0.00 | 0.15 | 0.00 | 89 | 1015.3 |
| 20260508035515 | 7 | 0.0 | 1.6 | 0.00 | 0.23 | 0.15 | 89 | 1015.4 | |
| 20260508034555 | 7 | 0.0 | 0.0 | 0.00 | 0.23 | 0.15 | 89 | 1015.4 | |
| 20260508033515 | 7 | 0.0 | 0.0 | 0.00 | 0.23 | 0.15 | 89 | 1015.3 | |
| 20260508032515 | 7 | 182 | 0.0 | 3.2 | 0.00 | 0.25 | 0.15 | 89 | 1015.3 |
| 20260508031515 | 7 | 0.0 | 0.0 | 0.00 | 0.25 | 0.15 | 88 | 1015.3 | |
| 20260508030515 | 7 | 0.0 | 0.0 | 0.00 | 0.25 | 0.15 | 88 | 1015.2 | |
| 20260508025516 | 7 | 0.0 | 0.0 | 0.00 | 0.25 | 0.15 | 88 | 1015.0 | |
| 20260508024516 | 7 | 0.0 | 0.0 | 0.00 | 0.25 | 0.15 | 88 | 1015.0 | |
| 20260508023555 | 7 | 0.0 | 0.0 | 0.00 | 0.25 | 0.15 | 88 | 1014.5 | |
| 20260508022515 | 7 | 0.0 | 0.0 | 0.00 | 0.25 | 0.15 | 87 | 1014.3 | |
| 20260508021515 | 7 | 0.0 | 0.0 | 0.00 | 0.25 | 0.15 | 86 | 1014.4 | |
| 20260508020515 | 8 | 0.0 | 0.0 | 0.00 | 0.25 | 0.15 | 86 | 1014.4 | |
| 20260508015515 | 8 | 0.0 | 0.0 | 0.00 | 0.25 | 0.15 | 86 | 1014.3 | |
| 20260508014515 | 8 | 0.0 | 0.0 | 0.00 | 0.28 | 0.15 | 86 | 1014.0 | |
| 20260508013515 | 8 | 0.0 | 0.0 | 0.00 | 0.28 | 0.15 | 85 | 1014.1 | |
| 20260508012515 | 8 | 0.0 | 0.0 | 0.00 | 0.30 | 0.15 | 85 | 1013.7 | |
| 20260508011515 | 8 | 0.0 | 1.6 | 0.00 | 0.33 | 0.15 | 84 | 1013.5 | |
| 20260508010515 | 9 | 182 | 1.6 | 3.2 | 0.00 | 0.33 | 0.15 | 83 | 1013.5 |
| 20260508005515 | 9 | 0.0 | 3.2 | 0.00 | 0.36 | 0.15 | 83 | 1013.4 | |
| 20260508004515 | 9 | 182 | 0.0 | 3.2 | 0.00 | 0.36 | 0.15 | 82 | 1013.3 |
| 20260508003555 | 10 | 182 | 1.6 | 3.2 | 0.00 | 0.36 | 0.15 | 81 | 1013.2 |
| 20260508002535 | 10 | 182 | 1.6 | 4.8 | 0.00 | 0.36 | 0.15 | 80 | 1013.1 |
| 20260508001515 | 10 | 183 | 3.2 | 4.8 | 0.00 | 0.36 | 0.15 | 78 | 1013.2 |
| 20260508000515 | 11 | 183 | 1.6 | 3.2 | 0.00 | 0.36 | 0.15 | 77 | 1013.2 |
| 20260507235515 | 11 | 183 | 1.6 | 3.2 | 0.00 | 0.36 | 0.15 | 77 | 1013.3 |
| 20260507234515 | 11 | 176 | 1.6 | 4.8 | 0.00 | 0.38 | 0.15 | 75 | 1013.3 |
| 20260507233535 | 11 | 173 | 1.6 | 3.2 | 0.00 | 0.38 | 0.15 | 76 | 1013.3 |
| 20260507232535 | 11 | 173 | 0.0 | 3.2 | 0.00 | 0.43 | 0.15 | 76 | 1013.3 |
| 20260507231515 | 11 | 173 | 0.0 | 3.2 | 0.00 | 0.46 | 0.15 | 75 | 1013.3 |
| 20260507230515 | 11 | 174 | 1.6 | 8.0 | 0.00 | 0.48 | 0.15 | 76 | 1013.3 |
| 20260507225515 | 11 | 143 | 1.6 | 4.8 | 0.00 | 0.48 | 0.15 | 77 | 1013.2 |
| 20260507224515 | 11 | 133 | 1.6 | 4.8 | 0.00 | 0.48 | 0.15 | 78 | 1013.2 |
| 20260507223535 | 11 | 132 | 1.6 | 4.8 | 0.00 | 0.51 | 0.15 | 78 | 1013.1 |
| 20260507222515 | 11 | 107 | 1.6 | 6.4 | 0.00 | 0.51 | 0.15 | 79 | 1013.1 |
| 20260507221515 | 11 | 297 | 1.6 | 4.8 | 0.00 | 0.51 | 0.15 | 78 | 1012.9 |
| 20260507220515 | 11 | 112 | 1.6 | 6.4 | 0.00 | 0.51 | 0.15 | 79 | 1012.8 |
| 20260507215515 | 11 | 123 | 1.6 | 8.0 | 0.00 | 0.51 | 0.15 | 78 | 1012.5 |
| 20260507214535 | 11 | 162 | 3.2 | 8.0 | 0.00 | 0.51 | 0.15 | 78 | 1012.4 |
| 20260507213515 | 12 | 156 | 1.6 | 6.4 | 0.00 | 0.51 | 0.15 | 78 | 1012.3 |
| 20260507212515 | 12 | 168 | 1.6 | 6.4 | 0.00 | 0.51 | 0.15 | 76 | 1012.2 |
| 20260507211515 | 13 | 179 | 3.2 | 8.0 | 0.00 | 0.51 | 0.15 | 75 | 1012.1 |
| 20260507210515 | 14 | 196 | 1.6 | 8.0 | 0.00 | 0.51 | 0.15 | 74 | 1012.1 |
| 20260507205535 | 15 | 167 | 3.2 | 6.4 | 0.00 | 0.51 | 0.15 | 74 | 1012.1 |
| 20260507204515 | 14 | 180 | 3.2 | 4.8 | 0.00 | 0.51 | 0.15 | 76 | 1011.7 |
| 20260507203515 | 15 | 162 | 3.2 | 8.0 | 0.00 | 0.51 | 0.15 | 73 | 1011.5 |
| 20260507202515 | 15 | 173 | 4.8 | 9.7 | 0.00 | 0.51 | 0.15 | 73 | 1011.7 |
| 20260507201515 | 15 | 174 | 4.8 | 8.0 | 0.00 | 0.51 | 0.15 | 73 | 1011.7 |
| 20260507200535 | 15 | 179 | 4.8 | 14.5 | 0.00 | 0.51 | 0.15 | 75 | 1011.7 |
| 20260507195515 | 14 | 175 | 1.6 | 6.4 | 0.00 | 0.51 | 0.15 | 79 | 1011.5 |